Wilmington, DE

2:19 AM EDT on August 23, 2017 (GMT -0400)
New Castle County

Weather History for KILG - January, 2014

Change the Weather History Date:

Sunday, January 26, 2014

  Actual Average Record
Temperature  
Mean Temperature 23 °F 32 °F  
Max Temperature 31 °F 40 °F 75 °F (1950)
Min Temperature 14 °F 25 °F 2 °F (1961)
Degree Days  
Heating Degree Days 42 33  
Month to date heating degree days 941 852  
Since 1 July heating degree days 2705 2629  
Cooling Degree Days 0 0  
Month to date cooling degree days 0 0  
Year to date cooling degree days 0 0  
Moisture  
Dew Point 10 °F    
Average Humidity 55    
Maximum Humidity 74    
Minimum Humidity 36    
Precipitation  
Precipitation T in 0.09 in 1.72 in (1933)
Month to date precipitation 3.16 2.51  
Year to date precipitation 3.16 2.51  
Snow  
Snow T in 0.20 in 10.30 in (2011)
Month to date snowfall 16.5 4.5  
Since 1 July snowfall 28.4 8.3  
Snow Depth 6.00 in    
Sea Level Pressure  
Sea Level Pressure 29.85 in    
Wind  
Wind Speed 9 mph (SW)    
Max Wind Speed 25 mph    
Max Gust Speed 35 mph    
Visibility 9 miles    
Events Snow    
T = Trace of Precipitation, MM = Missing Value Source: NWS Daily Summary

Daily Weather History Graph

Daily Weather History Graph

Search for Another Location

Airport or City:

Trip Planner

Search our weather history database for the weather conditions in past years. The results will help you decide how hot, cold, wet, or windy it might be!

Date:

Astronomy

Jan. 26, 2014 Rise Set
Actual Time 7:15 AM EST 5:15 PM EST
Civil Twilight 6:46 AM EST 5:44 PM EST
Nautical Twilight 6:13 AM EST 6:16 PM EST
Astronomical Twilight 5:41 AM EST 6:48 PM EST
Moon 2:50 AM EST (1/26) 1:02 PM EST (1/26)
Length of Visible Light 10h 57m
Length of Day
9h 59m
Waning Crescent, 24% of the Moon is Illuminated
Jan 26
Waning Crescent
Jan 30
New
Feb 6
First Quarter
Feb 14
Full
Feb 22
Last Quarter

Hourly Weather History & Observations

Time (EST) Temp. Windchill Dew Point Humidity Pressure Visibility Wind Dir Wind Speed Gust Speed Precip Events Conditions
12:51 AM 27.0 °F 14.3 °F 18.0 °F 69% 29.63 in 9.0 mi WNW 17.3 mph - 0.00 in Snow Light Snow
1:51 AM 24.1 °F 9.8 °F 9.0 °F 53% 29.69 in 10.0 mi WNW 19.6 mph 29.9 mph 0.00 in   Clear
2:51 AM 21.0 °F 8.6 °F 6.1 °F 53% 29.75 in 10.0 mi WNW 12.7 mph - N/A   Clear
3:51 AM 19.9 °F 6.7 °F 5.0 °F 52% 29.78 in 10.0 mi WNW 13.8 mph 19.6 mph N/A   Clear
4:51 AM 19.0 °F 6.1 °F 3.9 °F 52% 29.82 in 10.0 mi NW 12.7 mph - N/A   Clear
5:51 AM 15.1 °F 7.7 °F 3.0 °F 59% 29.86 in 10.0 mi WNW 4.6 mph - N/A   Clear
6:51 AM 15.1 °F 6.4 °F 3.9 °F 61% 29.90 in 10.0 mi West 5.8 mph - N/A   Clear
7:51 AM 16.0 °F 8.8 °F -0.0 °F 49% 29.94 in 10.0 mi SW 4.6 mph - N/A   Clear
8:51 AM 19.0 °F 8.2 °F -0.0 °F 43% 29.96 in 10.0 mi WSW 9.2 mph - N/A   Clear
9:51 AM 21.0 °F 10.6 °F 1.0 °F 42% 29.95 in 10.0 mi West 9.2 mph - N/A   Clear
10:51 AM 23.0 °F 13.1 °F 1.9 °F 40% 29.94 in 10.0 mi WNW 9.2 mph - N/A   Clear
11:51 AM 25.0 °F 16.3 °F 1.9 °F 37% 29.90 in 10.0 mi WSW 8.1 mph - N/A   Clear
12:51 PM 25.0 °F 15.5 °F 3.9 °F 41% 29.88 in 10.0 mi SSW 9.2 mph - N/A   Clear
1:51 PM 25.0 °F 14.8 °F 5.0 °F 43% 29.90 in 10.0 mi WSW 10.4 mph - N/A   Overcast
2:51 PM 25.0 °F 16.3 °F 7.0 °F 46% 29.88 in 9.0 mi SW 8.1 mph - 0.00 in Snow Light Snow
3:13 PM 23.0 °F 10.6 °F 15.8 °F 74% 29.88 in 1.8 mi SSW 13.8 mph 21.9 mph 0.00 in Snow Light Snow
3:40 PM 23.0 °F 12.4 °F 15.8 °F 74% 29.86 in 2.5 mi SSW 10.4 mph - 0.00 in Snow Light Snow
3:47 PM 23.0 °F 14.7 °F 15.8 °F 74% 29.86 in 6.0 mi SSW 6.9 mph - 0.00 in Snow Light Snow
3:51 PM 23.0 °F 13.9 °F 16.0 °F 74% 29.87 in 8.0 mi SSW 8.1 mph - 0.00 in Snow Light Snow
3:59 PM 24.8 °F 16.9 °F 15.8 °F 69% 29.86 in 10.0 mi SSW 6.9 mph - N/A   Overcast
4:51 PM 25.0 °F 20.7 °F 15.1 °F 66% 29.86 in 10.0 mi SSW 3.5 mph - N/A   Overcast
5:51 PM 26.1 °F 17.6 °F 14.0 °F 60% 29.86 in 10.0 mi SSE 8.1 mph - N/A   Overcast
6:51 PM 27.0 °F 18.7 °F 15.1 °F 61% 29.85 in 10.0 mi SSE 8.1 mph - N/A   Overcast
7:51 PM 28.0 °F 24.2 °F 19.0 °F 69% 29.84 in 10.0 mi SE 3.5 mph - N/A   Overcast
8:51 PM 30.9 °F 24.3 °F 17.1 °F 57% 29.83 in 10.0 mi South 6.9 mph - N/A   Overcast
9:51 PM 30.0 °F 24.1 °F 17.1 °F 59% 29.82 in 10.0 mi South 5.8 mph - N/A   Overcast
10:51 PM 28.9 °F 22.8 °F 19.9 °F 69% 29.80 in 10.0 mi South 5.8 mph - N/A   Overcast
11:51 PM 28.9 °F 23.9 °F 21.9 °F 75% 29.77 in 10.0 mi South 4.6 mph - N/A   Clear